FENGYUN 1C DEB, 32088

Orbit data source: Space-Track

FENGYUN 1C DEB, 32088 is space debris in SSO originally from a launch on Mon, 10 May 1999 UTC launched from the Taiyaun Space Center, China (TSC). Fengyun 1C debris stems from the Chinese weather satellite Fengyun-1C, which was intentionally destroyed by a Chinese anti-satellite missile in 2007. This event dramatically increased the amount of space debris, with thousands of trackable fragments posing hazards to satellites and human spaceflight. The Fengyun 1C debris cloud has become a focal point in discussions about space sustainability and the need for international regulations to prevent the creation of new debris.

Loading next visibility...
Identifier
32088, 1999-025CQE
Orbit
SSO
Country
Flag of CNCN / PRC
Related business
Manufacturer
Unknown
Mission
Spacecraft
Bus & Motor
Unknown
Mass
Unknown
Launch date (UTC)
1999-05-10 (27 years ago)
Launch vehicle
Unknown
Launch site
Taiyaun Space Center, China (TSC)
Object type
Payload
Rocket body
Debris
Shape & HBR
Unknown shape, 0.1 m
Radar Cross Section
Medium (>0.1 m² and <1 m²)

Expand to show TLE details & history
Last TLE update: 1 day ago

TLE from 1 day ago
0 FENGYUN 1C DEB
1 32088U 99025CQE 26256.52726684  .00002061  00000-0  26928-2 0  9995
2 32088 102.4002 180.9950 0464378 126.8614 237.6013 13.25901471634855
Epoch: 2026-09-13T12:39Z
TLE epoch observation values (Epoch: 2026-09-13T12:39:15.854Z)
Latitude
-0.00003°
Longitude
-1.34169°
Altitude
1,363.739 km
Speed
7.082 km/s
True Right ascension
12h 03m 58s
True Declination
0° 00' 00"
Sunlit
Object was in daylight at epoch
Visualization orbit readout
Latitude
Unknown
Longitude
Unknown
Altitude
Unknown
Speed
Unknown
Apparent Right ascension
Unknown
Apparent Declination
Unknown
Sunlit
N/A
Visualization observer readout
Local Sidereal Time
07:38:01
Azimuth
Unknown
Elevation
Unknown
Doppler factor
Unknown
Orbital elements
Apogee altitude
1,509.786 km
Perigee altitude
809.7 km
Semi-major axis
7,537.88 km
Eccentricity
0.04644
Inclination
102.4002°
RAAN
180.995°
Arg. of periapsis
126.8614°
True anomaly
233.24811°
Mean anomaly
237.6013°
Eccentric anomaly
235.4109°
Mean motion
3.31642 °/min
Orbital period
108.55 mins
BSTAR
0.0026928
Loading maneuver chart data...
Computing Atmospheric mass density...

Documentation

Showing up to 5 results
|